Regional Weather Roundup
Issued by NWS Burlington, VT

Current Version | Previous Version | Text Only | Print | Product List | Glossary On
Versions: 1 2 3 4 5 6 7 8 9 10 11 12 13 14 15 16 17 18 19 20 21 22 23 24 25 26 27 28 29 30 31 32 33 34 35 36 37 38 39 40 41 42 43 44 45 46 47 48 49 50
000 ASUS41 KBTV 260630 RWRBTV VERMONT REGIONAL WEATHER ROUNDUP NATIONAL WEATHER SERVICE BURLINGTON VT 200 AM EDT SAT MAY 26 2018 NOTE: "FAIR" INDICATES FEW OR NO CLOUDS BELOW 12,000 FEET WITH NO SIGNIFICANT WEATHER AND/OR OBSTRUCTIONS TO VISIBILITY. * THESE REPORTS ARE NOT UNDER NWS QUALITY CONTROL AND/OR DO NOT REPORT WEATHER SUCH AS PRECIPITATION AND FOG. VTZ001>019-260700- _____VERMONT_____ CITY SKY/WX TMP DP RH WIND PRES REMARKS BURLINGTON CLOUDY 64 61 90 CALM 29.69F 6HR MIN TEMP: 64; 6HR MAX TEMP: 68; 6HR PCP: 0.04; MONTPELIER CLOUDY 62 59 90 W7 29.76F 6HR MIN TEMP: 61; 6HR MAX TEMP: 73; 6HR PCP: TRACE; MORRISVILLE CLOUDY 61 60 97 CALM 29.71F 6HR MIN TEMP: 60; 6HR MAX TEMP: 69; 6HR PCP: 0.03; ST. JOHNSBURY* N/A 63 60 90 MISG 29.69F 6HR MIN TEMP: 63; 6HR MAX TEMP: 75; 6HR PCP: 0.01; LYNDONVILLE* CLOUDY 63 55 75 CALM 29.73F 6HR MIN TEMP: 63; 6HR MAX TEMP: 73; MIDDLEBURY* MOCLDY 64 54 69 CALM 29.71S 6HR MIN TEMP: 63; 6HR MAX TEMP: 69; RUTLAND* MOCLDY 72 52 49 CALM 29.74F 6HR MIN TEMP: 67; 6HR MAX TEMP: 74; SPRINGFIELD FAIR 64 57 78 CALM 29.74S 6HR MIN TEMP: 64; 6HR MAX TEMP: 79; HIGHGATE* CLOUDY 65 58 76 S3 29.67S 6HR MIN TEMP: 63; 6HR MAX TEMP: 72; NEWPORT* CLOUDY 61 58 91 CALM 29.71S 6HR MIN TEMP: 62; 6HR MAX TEMP: 72; BENNINGTON CLOUDY 64 56 75 CALM 29.78F 6HR MIN TEMP: 61; 6HR MAX TEMP: 74; ISLAND POND* N/A 64 N/A N/A W5 N/A GALLUP MILLS* N/A 59 N/A N/A MISG N/A UNION VILLAGE* N/A 61 N/A N/A MISG N/A MT. MANSFIELD* N/A 57 N/A N/A W33 N/A _____LAKE CHAMPLAIN_____ CITY SKY/WX TMP DP RH WIND PRES REMARKS BURTON ISLAND* N/A 61 57 88 SE2 N/A COLCHESTER RF* N/A 64 55 72 S7G13 N/A DIAMOND ISL* N/A 66 57 72 N1 N/A $$ NYZ007-026>031-035-052-083-087-260700- _____NORTHERN NEW YORK_____ CITY SKY/WX TMP DP RH WIND PRES REMARKS PLATTSBURGH FAIR 66 53 63 CALM 29.67F 6HR MIN TEMP: 61; 6HR MAX TEMP: 72; 6HR PCP: 0.01; SARANAC LAKE CLOUDY 62 52 69 SW10 29.76S 6HR MIN TEMP: 57; 6HR MAX TEMP: 63; 6HR PCP: 0.02; MASSENA MOCLDY 62 58 86 SW6 29.70S 6HR MIN TEMP: 61; 6HR MAX TEMP: 66; 6HR PCP: TRACE; OGDENSBURG* LGT RAIN 60 57 89 CALM 29.70S 6HR MIN TEMP: 62; 6HR MAX TEMP: 70; POTSDAM* CLOUDY 61 55 82 S9 29.70F STARK FALLS* N/A 61 N/A N/A SW5 N/A WATERTOWN MOCLDY 63 50 62 SW3 29.74F 6HR MIN TEMP: 62; 6HR MAX TEMP: 70; FT DRUM FAIR 70 46 42 W12G18 29.74S 6HR MIN TEMP: 69; 6HR MAX TEMP: 73; ALBANY MOCLDY 64 52 64 S5 29.77F 6HR MIN TEMP: 63; 6HR MAX TEMP: 81; GLENS FALLS FAIR 66 54 65 S8 29.73S 6HR MIN TEMP: 64; 6HR MAX TEMP: 79; $$ NHZ002-005-011-260700- _____NEW HAMPSHIRE_____ CITY SKY/WX TMP DP RH WIND PRES REMARKS LEBANON MOCLDY 62 56 80 S3 29.71F 6HR MIN TEMP: 62; 6HR MAX TEMP: 78; 6HR PCP: TRACE; KEENE MOCLDY 61 57 87 S3 29.75F 6HR MIN TEMP: 61; 6HR MAX TEMP: 75; MT WASHINGTON SHOWER 45 45 100 W44G54 N/A VSB 0 6HR MIN TEMP: 44; 6HR MAX TEMP: 49; 6HR PCP: 0.35; PLYMOUTH FAIR 61 58 91 CALM 29.71S 6HR MIN TEMP: 62; 6HR MAX TEMP: 76; WHITEFIELD CLOUDY 63 59 87 CALM 29.73F 6HR MIN TEMP: 63; 6HR MAX TEMP: 74; 6HR PCP: 0.01; $$ _____REGIONAL QUEBEC LOCATIONS_____ CITY SKY/WX TMP DP RH WIND PRES REMARKS MONTREAL CLOUDY 64 61 88 SW6 29.66S QUEBEC CITY CLOUDY 63 61 94 S5 29.59S SHERBROOKE CLOUDY 66 59 77 W13 29.65F _____REGIONAL ONTARIO LOCATIONS_____ CITY SKY/WX TMP DP RH WIND PRES REMARKS OTTAWA CLOUDY 63 61 94 S5 29.69F ______KEY______ VSB - VISIBILITY IN MILES WCI - WIND CHILL INDEX HX - HEAT INDEX $$ NNNN

USA.gov is the U.S. government's official web portal to all federal, state and local government web resources and services.